GW0306 Weather Reports


time (UTC)temp
C
wind
direction
speed
KPH
gust
KPH
rain 1hr
cm
rain 24hr
cm
rain mn
cm
humidity
%
barometer
mb
20260508154853 11 270 12.9 40.2 0.00 0.00 0.03 61 1004.7
20260508154343 11 270 8.0 40.2 0.00 0.00 0.03 62 1005.0
20260508153832 11 225 14.5 32.2 0.00 0.00 0.03 62 1004.9
20260508153322 12 203 4.8 32.2 0.00 0.00 0.03 63 1005.0
20260508152812 11 225 11.3 33.8 0.00 0.00 0.03 62 1004.8
20260508152305 11 293 17.7 33.8 0.00 0.00 0.03 64 1005.0
20260508151752 11 248 11.3 37.0 0.00 0.00 0.03 64 1005.0
20260508151241 11 270 11.3 37.0 0.00 0.00 0.03 63 1004.9
20260508150731 11 315 16.1 33.8 0.00 0.00 0.03 64 1004.9
20260508145711 10 270 17.7 32.2 0.00 0.00 0.03 66 1005.1
20260508145202 10 293 16.1 32.2 0.00 0.00 0.03 66 1005.2
20260508144651 11 293 14.5 35.4 0.00 0.00 0.03 65 1005.5
20260508142101 10 270 20.9 38.6 0.00 0.00 0.03 67 1005.2
20260508141040 10 248 24.1 35.4 0.00 0.00 0.03 67 1005.5
20260508140530 10 293 12.9 33.8 0.00 0.00 0.03 69 1005.4
20260508135510 10 270 11.3 27.4 0.00 0.00 0.03 70 1005.4
20260508135000 9 293 16.1 27.4 0.00 0.00 0.03 71 1005.5
20260508134449 9 315 12.9 37.0 0.00 0.00 0.03 71 1005.3
20260508133940 9 293 17.7 37.0 0.00 0.00 0.03 72 1005.2
20260508133430 10 293 8.0 40.2 0.00 0.00 0.03 72 1005.1
20260508132919 10 315 14.5 40.2 0.00 0.00 0.03 71 1005.3
20260508132409 10 293 12.9 40.2 0.00 0.00 0.03 72 1005.2
20260508131859 9 293 9.7 32.2 0.00 0.00 0.03 73 1005.3
20260508131349 9 293 14.5 25.7 0.00 0.00 0.03 74 1005.2
20260508130839 9 270 9.7 29.0 0.00 0.00 0.03 74 1005.4
20260508125819 8 293 16.1 38.6 0.00 0.00 0.03 74 1005.1
20260508125308 8 315 14.5 37.0 0.00 0.00 0.03 75 1005.2
20260508124759 8 203 14.5 27.4 0.00 0.00 0.03 75 1005.2
20260508124249 8 270 11.3 33.8 0.00 0.00 0.03 76 1004.9
20260508123738 8 315 12.9 33.8 0.00 0.00 0.03 76 1005.0
20260508123228 8 270 17.7 29.0 0.00 0.00 0.03 76 1005.0
20260508122208 8 270 9.7 25.7 0.00 0.00 0.03 77 1004.9
20260508121148 8 315 11.3 29.0 0.00 0.00 0.03 77 1004.6
20260508120638 8 248 16.1 29.0 0.00 0.00 0.03 77 1004.8
20260508120128 7 270 8.0 24.1 0.00 0.00 0.03 78 1004.6
20260508115617 7 270 9.7 27.4 0.00 0.00 0.03 78 1004.6
20260508115107 7 270 8.0 27.4 0.00 0.00 0.03 79 1004.7
20260508114558 7 270 17.7 27.4 0.00 0.00 0.03 79 1004.6
20260508114046 7 270 8.0 25.7 0.00 0.00 0.03 79 1004.5
20260508113537 7 270 9.7 35.4 0.00 0.00 0.03 79 1004.4
20260508113027 7 270 20.9 35.4 0.00 0.00 0.03 79 1004.4
20260508112517 7 293 12.9 32.2 0.00 0.00 0.03 80 1004.2
20260508112007 7 293 16.1 32.2 0.00 0.00 0.03 81 1004.4
20260508111456 7 293 17.7 29.0 0.00 0.00 0.03 81 1004.2
20260508110946 7 293 17.7 32.2 0.00 0.00 0.03 83 1004.1
20260508110436 7 270 12.9 32.2 0.00 0.00 0.03 84 1003.9
20260508105926 7 315 17.7 32.2 0.00 0.00 0.03 85 1004.1
20260508105416 7 293 12.9 27.4 0.00 0.00 0.03 86 1003.8
20260508104906 7 293 14.5 29.0 0.00 0.00 0.03 87 1004.1
20260508104356 7 270 17.7 29.0 0.00 0.00 0.03 88 1003.9
20260508103846 7 270 14.5 27.4 0.00 0.00 0.03 88 1003.7
20260508103335 7 293 12.9 32.2 0.00 0.00 0.03 88 1003.6
20260508102825 7 270 11.3 32.2 0.00 0.00 0.03 89 1003.7
20260508102315 7 293 19.3 32.2 0.00 0.00 0.03 89 1003.7
20260508101805 6 225 8.0 35.4 0.00 0.00 0.03 90 1003.7
20260508101255 7 270 14.5 35.4 0.00 0.00 0.03 90 1003.6
20260508100745 7 293 9.7 27.4 0.00 0.00 0.03 89 1003.3
20260508100235 7 293 11.3 27.4 0.00 0.00 0.03 88 1003.3
20260508095725 7 248 6.4 25.7 0.00 0.00 0.03 87 1003.4
20260508095215 7 270 6.4 32.2 0.00 0.00 0.03 87 1003.2
20260508094705 7 293 11.3 32.2 0.00 0.00 0.03 88 1003.0
20260508094154 7 248 9.7 29.0 0.00 0.00 0.03 89 1003.0
20260508093644 7 270 11.3 29.0 0.00 0.00 0.03 88 1003.1
20260508093134 7 315 8.0 25.7 0.00 0.00 0.03 87 1003.1
20260508092624 7 248 8.0 32.2 0.00 0.00 0.03 86 1003.1
20260508092114 7 203 11.3 33.8 0.00 0.00 0.03 85 1003.2
20260508091604 7 225 11.3 35.4 0.00 0.00 0.03 84 1002.9
20260508090544 8 248 14.5 38.6 0.00 0.00 0.03 81 1003.2
20260508090033 8 248 19.3 43.5 0.00 0.00 0.03 80 1002.8
20260508085523 8 248 12.9 43.5 0.00 0.00 0.03 80 1002.8
20260508083953 9 270 11.3 40.2 0.00 0.00 0.03 78 1002.7
20260508083443 9 293 14.5 24.1 0.00 0.00 0.03 77 1002.5
20260508082932 9 293 11.3 33.8 0.00 0.00 0.03 76 1002.7
20260508082422 9 203 9.7 33.8 0.00 0.00 0.03 76 1002.7
20260508081403 9 248 9.7 25.7 0.00 0.00 0.03 78 1002.7
20260508080852 9 270 12.9 20.9 0.00 0.00 0.03 77 1002.5
20260508080341 9 270 8.0 0.0 0.00 0.00 0.03 76 1002.4
20260508080147 9 270 8.0 0.0 0.00 0.00 0.03 75 1002.4
20260508075524 9 270 16.1 27.4 0.00 0.15 0.03 75 1002.4
20260508075014 9 270 6.4 17.7 0.00 0.15 0.03 76 1002.4
20260508073953 9 225 8.0 29.0 0.00 0.15 0.03 75 1002.6
20260508073444 9 248 6.4 29.0 0.00 0.15 0.03 75 1002.6
20260508072423 9 248 14.5 29.0 0.00 0.15 0.03 76 1002.6
20260508071913 9 248 9.7 29.0 0.00 0.15 0.03 76 1002.6
20260508071403 9 293 9.7 32.2 0.00 0.15 0.03 77 1002.9
20260508070852 9 270 11.3 32.2 0.00 0.15 0.03 77 1002.8
20260508065832 9 270 17.7 33.8 0.00 0.15 0.03 77 1002.8
20260508065323 8 248 12.9 27.4 0.00 0.15 0.03 77 1002.8
20260508064812 8 315 9.7 29.0 0.00 0.15 0.03 78 1002.8
20260508064303 8 270 17.7 29.0 0.00 0.15 0.03 79 1003.0
20260508063752 8 293 17.7 27.4 0.00 0.15 0.03 78 1003.0
20260508063242 8 270 11.3 29.0 0.00 0.15 0.03 78 1003.1
20260508062732 8 158 11.3 29.0 0.00 0.15 0.03 78 1003.1
20260508062222 8 248 12.9 43.5 0.00 0.15 0.03 78 1003.2
20260508061712 8 293 12.9 43.5 0.00 0.15 0.03 78 1003.2
20260508061201 9 248 16.1 43.5 0.00 0.15 0.03 78 1003.2
20260508060651 9 270 17.7 43.5 0.00 0.15 0.03 78 1003.4
20260508060142 9 225 17.7 40.2 0.00 0.15 0.03 79 1003.3
20260508055631 9 225 11.3 40.2 0.00 0.15 0.03 80 1003.1
20260508055121 9 270 14.5 32.2 0.00 0.15 0.03 81 1003.4
20260508054101 9 248 12.9 33.8 0.00 0.15 0.03 80 1003.4
20260508053551 9 180 16.1 37.0 0.00 0.15 0.03 80 1003.4
20260508053046 9 270 11.3 37.0 0.00 0.15 0.03 80 1003.4
20260508052531 9 225 6.4 20.9 0.00 0.15 0.03 81 1003.2
20260508052020 9 293 6.4 27.4 0.00 0.15 0.03 81 1003.2
20260508051001 9 270 11.3 35.4 0.00 0.15 0.03 81 1003.4
20260508050450 9 203 9.7 35.4 0.00 0.15 0.03 82 1003.3
20260508045940 9 248 11.3 33.8 0.00 0.15 0.03 83 1003.1
20260508045429 9 203 9.7 29.0 0.00 0.15 0.03 84 1003.0
20260508044409 8 270 4.8 27.4 0.03 0.15 0.03 86 1003.1
20260508043349 8 248 6.4 32.2 0.03 0.15 0.03 88 1002.9
20260508042840 8 270 4.8 32.2 0.03 0.15 0.03 88 1003.0
20260508042330 8 270 12.9 32.2 0.03 0.15 0.03 89 1003.2
20260508041819 8 203 14.5 32.2 0.03 0.15 0.03 90 1003.0
20260508041312 8 248 17.7 32.2 0.03 0.15 0.03 91 1002.7
20260508040759 8 248 11.3 27.4 0.03 0.15 0.03 92 1003.1
20260508040249 8 293 9.7 27.4 0.03 0.15 0.03 92 1002.9
20260508035229 8 248 17.7 32.2 0.03 0.15 0.03 93 1003.1
20260508034718 8 270 12.9 24.1 0.00 0.13 0.00 93 1003.3
20260508033658 8 293 6.4 29.0 0.00 0.13 0.00 93 1003.0
20260508033148 8 225 17.7 35.4 0.00 0.13 0.00 93 1003.0
20260508032128 8 270 9.7 33.8 0.00 0.13 0.00 93 1003.0
20260508031618 8 203 11.3 33.8 0.00 0.13 0.00 93 1002.9
20260508031107 8 315 12.9 32.2 0.00 0.13 0.00 93 1002.8
20260508030557 8 248 16.1 33.8 0.00 0.13 0.00 92 1002.9
20260508030047 8 225 9.7 33.8 0.00 0.13 0.00 92 1002.9
20260508025537 9 225 9.7 33.8 0.00 0.13 3.86 92 1002.7
20260508025028 9 270 12.9 35.4 0.00 0.13 3.86 92 1002.8
20260508024517 9 293 12.9 37.0 0.00 0.13 3.86 92 1002.8
20260508023458 9 225 16.1 33.8 0.00 0.13 3.86 93 1002.5
20260508022947 9 248 14.5 33.8 0.00 0.13 3.86 93 1002.4
20260508022436 9 248 11.3 32.2 0.00 0.13 3.86 93 1002.7
20260508021416 9 293 12.9 37.0 0.00 0.13 3.86 93 1002.5
20260508020906 9 270 14.5 33.8 0.00 0.13 3.86 94 1002.5
20260508020356 9 225 6.4 33.8 0.00 0.13 3.86 94 1002.5
20260508015846 9 270 19.3 33.8 0.00 0.13 3.86 94 1002.6
20260508015335 9 248 12.9 35.4 0.03 0.13 3.86 94 1002.4
20260508014826 9 248 12.9 35.4 0.03 0.13 3.86 94 1002.5
20260508014316 9 248 19.3 32.2 0.05 0.13 3.86 94 1002.6
20260508013805 10 270 9.7 25.7 0.05 0.13 3.86 94 1002.6
20260508013256 10 203 12.9 25.7 0.10 0.13 3.86 93 1002.6
20260508012745 10 315 8.0 24.1 0.13 0.13 3.86 93 1002.6
20260508012235 10 315 12.9 24.1 0.13 0.13 3.86 93 1002.6
20260508011725 10 293 12.9 32.2 0.13 0.13 3.86 93 1002.6
20260508011214 10 248 17.7 32.2 0.13 0.13 3.86 93 1002.6
20260508010705 10 338 12.9 32.2 0.13 0.13 3.86 93 1002.6
20260508010155 10 248 16.1 32.2 0.13 0.13 3.86 93 1002.7
20260508005644 10 338 17.7 32.2 0.10 0.10 3.84 93 1002.5
20260508004625 10 225 4.8 27.4 0.10 0.10 3.84 92 1003.0
20260508003604 10 270 12.9 32.2 0.03 0.03 3.78 92 1002.9
20260508003054 10 293 9.7 33.8 0.03 0.03 3.78 91 1002.8
20260508002543 10 270 9.7 33.8 0.00 0.00 3.76 91 1003.1
20260508001527 11 293 8.0 32.2 0.00 0.00 3.76 90 1002.9
20260507235953 11 270 6.4 37.0 0.00 0.00 3.76 87 1002.7
20260507235444 11 293 16.1 37.0 0.00 0.00 3.76 87 1002.6
20260507234933 11 293 12.9 33.8 0.00 0.00 3.76 86 1002.7
20260507234423 11 248 11.3 33.8 0.00 0.00 3.76 86 1002.8
20260507233913 11 270 8.0 32.2 0.00 0.00 3.76 86 1002.8
20260507233403 11 293 17.7 29.0 0.00 0.00 3.76 86 1002.8
20260507232853 11 315 12.9 25.7 0.00 0.00 3.76 86 1002.9
20260507232343 11 293 9.7 25.7 0.00 0.00 3.76 86 1002.8
20260507231832 11 315 6.4 24.1 0.00 0.00 3.76 86 1003.0
20260507230813 11 248 6.4 27.4 0.00 0.00 3.76 86 1003.1
20260507225753 12 248 12.9 24.1 0.00 0.00 3.76 85 1003.0
20260507225243 12 293 8.0 24.1 0.00 0.00 3.76 85 1003.0
20260507223712 12 315 6.4 32.2 0.00 0.00 3.76 86 1003.0
20260507222652 12 293 6.4 27.4 0.00 0.00 3.76 87 1003.2
20260507222141 11 315 11.3 27.4 0.00 0.00 3.76 88 1002.8
20260507221121 12 270 8.0 35.4 0.00 0.00 3.76 89 1002.7
20260507220611 12 270 12.9 22.5 0.00 0.00 3.76 88 1002.7
20260507220101 12 338 12.9 37.0 0.00 0.00 3.76 88 1002.4
20260507215041 12 270 12.9 37.0 0.00 0.00 3.76 87 1002.4
20260507214530 12 270 17.7 37.0 0.00 0.00 3.76 87 1002.3
20260507214020 12 270 16.1 25.7 0.00 0.00 3.76 86 1002.1
20260507213510 12 293 6.4 25.7 0.00 0.00 3.76 85 1002.2
20260507213000 12 315 14.5 25.7 0.00 0.00 3.76 85 1002.2
20260507212450 12 293 11.3 25.7 0.00 0.00 3.76 85 1002.2
20260507211940 12 270 16.1 25.7 0.00 0.00 3.76 85 1002.4
20260507211430 12 293 12.9 24.1 0.00 0.00 3.76 84 1002.4
20260507210919 12 248 8.0 20.9 0.00 0.00 3.76 84 1002.3
20260507210410 12 270 12.9 25.7 0.00 0.00 3.76 84 1002.3
20260507205900 12 338 11.3 32.2 0.00 0.00 3.76 84 1002.2
20260507204839 13 23 14.5 32.2 0.00 0.00 3.76 83 1001.9
20260507203819 13 270 9.7 24.1 0.00 0.00 3.76 82 1002.0
20260507203309 13 248 12.9 24.1 0.00 0.00 3.76 82 1001.6
20260507202249 13 293 11.3 25.7 0.00 0.00 3.76 80 1001.8
20260507201228 13 293 11.3 32.2 0.00 0.00 3.76 79 1001.5
20260507200718 13 315 14.5 32.2 0.00 0.00 3.76 78 1001.7
20260507195658 13 315 4.8 22.5 0.00 0.00 3.76 78 1001.2
20260507195147 13 293 12.9 22.5 0.00 0.00 3.76 77 1000.9
20260507194638 13 225 12.9 24.1 0.00 0.00 3.76 77 1000.8
20260507194128 13 248 12.9 24.1 0.00 0.00 3.76 77 1000.5
20260507192047 13 293 11.3 24.1 0.00 0.00 3.76 75 1000.9
20260507191028 14 270 11.3 32.2 0.00 0.00 3.76 75 1000.9
20260507190007 15 270 16.1 27.4 0.00 0.00 3.76 73 1001.4
20260507184437 14 270 12.9 32.2 0.00 0.00 3.76 74 1002.3
20260507183926 14 270 14.5 32.2 0.00 0.00 3.76 74 1002.4
20260507183416 14 293 14.5 35.4 0.00 0.00 3.76 74 1002.4
20260507182356 14 248 12.9 29.0 0.00 0.00 3.76 74 1002.6
20260507181843 15 315 9.7 40.2 0.00 0.00 3.76 74 1002.8
20260507181333 14 293 27.4 40.2 0.00 0.00 3.76 73 1003.1
20260507180825 14 293 12.9 27.4 0.00 0.00 3.76 74 1003.3
20260507175806 15 293 9.7 25.7 0.00 0.00 3.76 76 1003.3
20260507175255 14 315 16.1 25.7 0.00 0.00 3.76 75 1003.3
20260507174235 14 293 12.9 20.9 0.00 0.00 3.76 76 1003.4
20260507173725 14 293 4.8 24.1 0.00 0.00 3.76 76 1003.4
20260507172704 14 293 12.9 27.4 0.00 0.00 3.76 76 1002.5
20260507172154 14 338 19.3 27.4 0.00 0.00 3.76 76 1002.0
20260507171645 14 248 16.1 24.1 0.00 0.00 3.76 76 1002.1
20260507170624 14 315 11.3 27.4 0.00 0.00 3.76 76 1002.2
20260507170114 14 270 9.7 27.4 0.00 0.00 3.76 76 1002.2
20260507165605 14 248 12.9 17.7 0.00 0.00 3.76 77 1001.9
20260507165054 15 248 3.2 17.7 0.00 0.00 3.76 77 1002.0
20260507164544 14 293 6.4 17.7 0.00 0.00 3.76 77 1002.2
20260507164033 14 248 9.7 20.9 0.00 0.00 3.76 77 1002.3
20260507163524 14 248 9.7 20.9 0.00 0.00 3.76 77 1002.7
20260507163013 14 338 9.7 25.7 0.00 0.00 3.76 77 1002.7
20260507162504 14 248 9.7 25.7 0.00 0.00 3.76 77 1003.0
20260507161443 14 293 12.9 33.8 0.00 0.00 3.76 77 1003.1
20260507160933 14 248 17.7 33.8 0.00 0.00 3.76 77 1003.2
20260507155913 15 270 9.7 32.2 0.00 0.00 3.76 77 1002.6
20260507155403 15 203 6.4 25.7 0.00 0.00 3.76 78 1002.5